Weather History for KBBB - September, 2013

Change the Weather History Date:

Sunday, September 8, 2013

  Actual Average Record
Temperature  
Mean Temperature 68 °F -  
Max Temperature 75 °F 77 °F 97 °F (1978)
Min Temperature 62 °F 52 °F 33 °F (2008)
Cooling Degree Days 4    
Growing Degree Days 18 (Base 50)    
Moisture  
Dew Point 60 °F    
Average Humidity 81    
Maximum Humidity 94    
Minimum Humidity 64    
Precipitation  
Precipitation 0.01 in - - ()
Sea Level Pressure  
Sea Level Pressure 29.97 in    
Wind  
Wind Speed 8 mph (ESE)    
Max Wind Speed 13 mph    
Max Gust Speed 21 mph    
Visibility 10 miles    
Events Rain    
Averages and records for this station are not official NWS values.
T = Trace of Precipitation, MM = Missing Value Source: NWS Daily Summary

Daily Weather History Graph

Daily Weather History Graph

Search for Another Location

Airport or City:

Trip Planner

Search our weather history database for the weather conditions in past years. The results will help you decide how hot, cold, wet, or windy it might be!

Date:

Astronomy

Sep. 08, 2013 Rise Set
Actual Time 6:52 AM CDT 7:46 PM CDT
Civil Twilight 6:22 AM CDT 8:16 PM CDT
Nautical Twilight 5:47 AM CDT 8:52 PM CDT
Astronomical Twilight 5:09 AM CDT 9:29 PM CDT
Moon 10:23 AM CDT (9/8) 9:09 PM CDT (9/8)
Length of Visible Light 13h 53m
Length of Day
12h 53m
Waxing Crescent, 11% of the Moon is Illuminated
Sep 8
Waxing Crescent
Sep 12
First Quarter
Sep 19
Full
Sep 26
Last Quarter
Oct 4
New

Hourly Weather History & Observations

Time (CDT) Temp. Dew Point Humidity Pressure Visibility Wind Dir Wind Speed Gust Speed Precip Events Conditions
12:12 AM 75.2 °F 66.2 °F 73% 30.01 in 10.0 mi East 9.2 mph - N/A   Clear
12:33 AM 73.4 °F 64.4 °F 73% 30.01 in 10.0 mi ESE 10.4 mph 17.3 mph N/A   Clear
12:52 AM 73.4 °F 62.6 °F 69% 30.01 in 10.0 mi ESE 10.4 mph 16.1 mph N/A   Clear
1:12 AM 71.6 °F 60.8 °F 69% 30.01 in 10.0 mi ESE 11.5 mph 17.3 mph N/A   Clear
1:33 AM 69.8 °F 59.0 °F 68% 30.01 in 10.0 mi SE 12.7 mph 20.7 mph N/A   Clear
1:52 AM 69.8 °F 57.2 °F 64% 30.02 in 10.0 mi ESE 10.4 mph 18.4 mph N/A   Clear
2:13 AM 69.8 °F 57.2 °F 64% 30.02 in 10.0 mi ESE 9.2 mph - N/A   Clear
2:33 AM 68.0 °F 57.2 °F 68% 30.01 in 10.0 mi SE 11.5 mph 17.3 mph N/A   Clear
2:52 AM 66.2 °F 57.2 °F 73% 30.02 in 10.0 mi ESE 10.4 mph 16.1 mph N/A   Clear
3:13 AM 66.2 °F 57.2 °F 73% 30.01 in 10.0 mi ESE 6.9 mph - N/A   Clear
3:32 AM 66.2 °F 55.4 °F 68% 30.00 in 10.0 mi SE 9.2 mph 16.1 mph N/A   Clear
3:52 AM 66.2 °F 55.4 °F 68% 30.01 in 10.0 mi ESE 6.9 mph - N/A   Clear
4:13 AM 66.2 °F 55.4 °F 68% 30.02 in 10.0 mi ESE 8.1 mph - N/A   Clear
4:32 AM 64.4 °F 57.2 °F 77% 30.02 in 10.0 mi ESE 8.1 mph - N/A   Clear
4:52 AM 64.4 °F 57.2 °F 77% 30.03 in 10.0 mi ESE 5.8 mph - N/A   Scattered Clouds
5:13 AM 64.4 °F 57.2 °F 77% 30.03 in 10.0 mi ESE 4.6 mph - N/A   Overcast
5:32 AM 64.4 °F 57.2 °F 77% 30.02 in 10.0 mi ESE 5.8 mph - N/A   Overcast
5:52 AM 64.4 °F 57.2 °F 77% 30.02 in 10.0 mi ESE 4.6 mph - N/A   Scattered Clouds
6:13 AM 64.4 °F 57.2 °F 77% 30.03 in 10.0 mi Calm Calm - N/A   Mostly Cloudy
6:32 AM 64.4 °F 57.2 °F 77% 30.03 in 10.0 mi ESE 3.5 mph - N/A   Scattered Clouds
6:53 AM 62.6 °F 57.2 °F 82% 30.03 in 10.0 mi Calm Calm - N/A   Scattered Clouds
7:13 AM 64.4 °F 57.2 °F 77% 30.03 in 10.0 mi SE 4.6 mph - N/A   Scattered Clouds
7:32 AM 64.4 °F 57.2 °F 77% 30.03 in 10.0 mi SE 6.9 mph - N/A   Scattered Clouds
7:53 AM 64.4 °F 57.2 °F 77% 30.02 in 10.0 mi SE 8.1 mph - N/A   Scattered Clouds
8:12 AM 64.4 °F 57.2 °F 77% 30.02 in 10.0 mi SE 5.8 mph - N/A   Clear
8:32 AM 64.4 °F 57.2 °F 77% 30.02 in 10.0 mi SE 4.6 mph - N/A   Clear
8:53 AM 64.4 °F 57.2 °F 77% 30.02 in 10.0 mi ESE 5.8 mph - N/A   Mostly Cloudy
9:12 AM 64.4 °F 57.2 °F 77% 30.01 in 10.0 mi SE 5.8 mph - N/A   Overcast
9:32 AM 64.4 °F 57.2 °F 77% 30.01 in 10.0 mi ESE 8.1 mph - N/A   Overcast
9:53 AM 64.4 °F 57.2 °F 77% 30.05 in 10.0 mi ESE 3.5 mph - N/A   Overcast
10:12 AM 64.4 °F 57.2 °F 77% 30.05 in 10.0 mi East 3.5 mph - N/A Rain Light Rain
10:32 AM 64.4 °F 57.2 °F 77% 30.05 in 10.0 mi East 5.8 mph - N/A   Overcast
10:53 AM 64.4 °F 59.0 °F 83% 30.03 in 10.0 mi SE 8.1 mph - N/A Rain Light Rain
11:12 AM 64.4 °F 60.8 °F 88% 30.03 in 7.0 mi SE 4.6 mph - N/A Rain Light Rain
11:33 AM 64.4 °F 60.8 °F 88% 30.03 in 10.0 mi ESE 3.5 mph - 0.01 in Rain Light Rain
11:53 AM 64.4 °F 60.8 °F 88% 30.00 in 10.0 mi SE 9.2 mph - 0.01 in Rain Light Rain
12:12 PM 64.4 °F 60.8 °F 88% 30.01 in 10.0 mi SSE 9.2 mph - N/A   Overcast
12:33 PM 66.2 °F 60.8 °F 83% 30.00 in 10.0 mi SE 6.9 mph - N/A   Overcast
12:52 PM 64.4 °F 60.8 °F 88% 29.99 in 7.0 mi South 8.1 mph - N/A Rain Light Rain
1:12 PM 66.2 °F 62.6 °F 88% 29.99 in 10.0 mi ESE 5.8 mph - N/A   Overcast
1:33 PM 66.2 °F 62.6 °F 88% 29.98 in 10.0 mi SE 5.8 mph - N/A   Overcast
1:52 PM 68.0 °F 62.6 °F 83% 29.98 in 10.0 mi SE 5.8 mph - N/A   Overcast
2:12 PM 69.8 °F 64.4 °F 83% 29.96 in 10.0 mi ESE 4.6 mph - N/A   Overcast
2:33 PM 69.8 °F 64.4 °F 83% 29.96 in 10.0 mi SE 6.9 mph - N/A   Overcast
2:52 PM 69.8 °F 64.4 °F 83% 29.95 in 10.0 mi ESE 6.9 mph - N/A   Overcast
3:12 PM 69.8 °F 64.4 °F 83% 29.94 in 10.0 mi ESE 6.9 mph - N/A   Overcast
3:33 PM 68.0 °F 64.4 °F 88% 29.94 in 10.0 mi East 8.1 mph - N/A   Overcast
3:52 PM 68.0 °F 64.4 °F 88% 29.93 in 10.0 mi ESE 8.1 mph - N/A   Overcast
4:12 PM 68.0 °F 62.6 °F 83% 29.93 in 10.0 mi ESE 8.1 mph - N/A   Overcast
4:32 PM 68.0 °F 64.4 °F 88% 29.93 in 10.0 mi ESE 6.9 mph - N/A   Overcast
4:52 PM 68.0 °F 64.4 °F 88% 29.93 in 10.0 mi ESE 8.1 mph - N/A   Overcast
5:13 PM 68.0 °F 64.4 °F 88% 29.92 in 10.0 mi ESE 8.1 mph - N/A   Overcast
5:32 PM 68.0 °F 62.6 °F 83% 29.92 in 10.0 mi ESE 8.1 mph - N/A   Overcast
5:52 PM 68.0 °F 62.6 °F 83% 29.92 in 10.0 mi ESE 8.1 mph - N/A   Overcast
6:13 PM 68.0 °F 62.6 °F 83% 29.91 in 10.0 mi ESE 9.2 mph - N/A   Overcast
6:32 PM 66.2 °F 62.6 °F 88% 29.91 in 10.0 mi ESE 9.2 mph - N/A   Overcast
6:52 PM 64.4 °F 62.6 °F 94% 29.90 in 10.0 mi ESE 9.2 mph - N/A   Overcast
7:13 PM 64.4 °F 60.8 °F 88% 29.90 in 7.0 mi ESE 5.8 mph - N/A   Overcast
7:32 PM 64.4 °F 60.8 °F 88% 29.90 in 7.0 mi ESE 8.1 mph - N/A   Overcast
7:52 PM 64.4 °F 60.8 °F 88% 29.90 in 10.0 mi SE 6.9 mph - N/A   Overcast
8:13 PM 64.4 °F 62.6 °F 94% 29.89 in 10.0 mi SE 6.9 mph - N/A   Overcast
8:32 PM 64.4 °F 62.6 °F 94% 29.89 in 7.0 mi SE 6.9 mph - N/A   Overcast
8:52 PM 66.2 °F 62.6 °F 88% 29.89 in 10.0 mi SE 6.9 mph - N/A   Overcast
9:13 PM 66.2 °F 62.6 °F 88% 29.89 in 10.0 mi SE 6.9 mph - N/A   Overcast
9:32 PM 66.2 °F 62.6 °F 88% 29.88 in 10.0 mi SE 3.5 mph - N/A   Overcast
9:53 PM 66.2 °F 60.8 °F 83% 29.88 in 10.0 mi SE 5.8 mph - N/A   Overcast
10:12 PM 66.2 °F 60.8 °F 83% 29.88 in 10.0 mi SE 5.8 mph - N/A   Overcast
10:32 PM 66.2 °F 60.8 °F 83% 29.87 in 10.0 mi SE 5.8 mph - N/A   Overcast
10:53 PM 66.2 °F 60.8 °F 83% 29.87 in 10.0 mi SE 8.1 mph - N/A   Overcast
11:12 PM 66.2 °F 60.8 °F 83% 29.86 in 10.0 mi SE 9.2 mph - N/A   Overcast
11:32 PM 66.2 °F 60.8 °F 83% 29.86 in 10.0 mi SE 6.9 mph - N/A   Overcast
11:53 PM 66.2 °F 60.8 °F 83% 29.86 in 10.0 mi SE 6.9 mph - N/A   Overcast